Location: �quirre
(50.4736°N, 2.2351°E)
Time: 17:51:23
(UTC+00:00)

CZ-2C R/B - Pass Details

Date: 07 August 2020
Orbit: 501 x 568 km, 97.7° (Epoch: 25 September)

Event Time Altitude Azimuth Distance (km) Brightness Sun altitude
Rises 03:18:39 0° 15° (NNE) 2,730 7.4 -9.9°
Reaches altitude 10° 03:20:49 10° 18° (NNE) 1,821 6.5 -9.7°
Maximum altitude 03:24:45 70° 102° (ESE) 575 3.0 -9.2°
Drops below altitude 10° 03:28:33 10° 187° (S) 1,765 5.0 -8.7°
Enters shadow 03:29:44 - 189° (S) 2,264 5.5 -8.6°
